Starlink 5235

operational
NORAD ID: 54185 Int'l Des: 2022-141 Owner: SPXS Country: US Constellation: starlink
LEOCIRCULAR

Starlink 5235について

説明を読み込み中...

リアルタイム位置

3D地球を読み込み中...

次回通過

高度履歴

Altitude vs Time

uPlot chart will show altitude changes over time

軌道要素

1 54185U 22141AE 26062.14722784 -.00000015 00000-0 17152-4 0 9991
2 54185 53.2192 33.2279 0001581 97.6706 262.4466 15.08835900184870
Epoch: Mar 3, 2026 • Age: 8 hours

現在のステータス

高度 540.7 km
速度 7.60 km/s
衛星直下点 28.79°N, 128.31°E
打ち上げ日 Oct 28, 2022
運用期間 3.3 years
タイプ internet

技術仕様

分類 Payload
質量 305.00 kg
乾燥質量 290.00 kg
総質量 305.00 kg
長さ 0.20 m
直径 2.80 m
スパン 9.00 m
形状 Box + pan
製造者 SPXS
バスタイプ Starlink
フェーズステータス In Orbit
所有者/国 SPXS/US

大規模コンステレーション

Loading constellations...